GSAT-19

Last updated on Sun Jun 21 2026 00:03:07 GMT+0000 (Coordinated Universal Time)

1 42747U 17031A 26171.25890353 .00000121 00000+0 00000+0 0 9990 2 42747 0.0306 265.2288 0007006 166.6198 337.7028 1.00269785 33170
UTC large
Height (km)
Speed (km/s)
/
Latitude / Longitude
Inclination (degrees)
Orbital Period (minutes)
Azimuth
Elevation
Range (km)
Doppler Factor

Next 0 passes for location: London (51.5072 / 0.1276)

No passes found over London.
GSAT-19